Location: Wildlife_Club
(35.6000°N, 81.4330°W)
Time: 10:26:09
(UTC-05:00)

Amateur Radio Satellites - All Passes

Search period start: 09 December 2016 09:56
Search period end: 10 December 2016 09:56
Location: Wildlife_Club, 35.6000°N, 81.4330°W

Satellite Date Start Highest point End Downlink Frequencies (MHz)
Time Altitude Azimuth
ZACube-1 09 Dec 09:57:13 10:01:07 38° 287° (WNW) 10:04:57 437.345
CUSAT 1 09 Dec 09:57:52 10:00:05 18° 281° (W) 10:02:06 437.405
FUNcube-1 09 Dec 10:02:50 10:06:41 36° 287° (WNW) 10:10:27 145.935
QB50P1 09 Dec 10:06:42 10:07:45 11° 65° (ENE) 10:08:47 145.935-145.965
PCSat 09 Dec 10:08:50 10:13:36 33° 109° (ESE) 10:18:23 145.827
DELFI C3 09 Dec 10:10:55 10:14:55 90° 91° (E) 10:18:55 145.870
TIGRISAT 09 Dec 10:19:26 10:24:00 52° 260° (W) 10:28:32 435.000
GONETS M04 09 Dec 10:21:07 10:26:40 18° 67° (ENE) 10:32:11
ANTELSAT 09 Dec 10:21:58 10:26:28 46° 261° (W) 10:30:56 437.575/2403.000
POPSAT HIP 1 09 Dec 10:26:29 10:29:27 19° 68° (ENE) 10:32:26 437.405
Oscar 11 09 Dec 10:29:21 10:32:30 20° 291° (WNW) 10:35:40 145.826/435.025
JAS-2 09 Dec 10:32:04 10:38:07 46° 72° (ENE) 10:43:32 435.910
RS-15 09 Dec 10:41:39 10:49:31 19° 338° (NNW) 10:57:33 29.354- 29.394
HUMSAT D 09 Dec 10:52:48 10:56:48 56° 285° (WNW) 11:00:47 437.325/437.525
AO-85 09 Dec 10:59:18 11:03:08 56° 244° (WSW) 11:06:55 145.980
NANOSAT C BR1 09 Dec 11:16:58 11:21:12 70° 76° (ENE) 11:25:27 145.865
Cosmos 2499 09 Dec 11:17:51 11:25:58 48° 77° (ENE) 11:33:26 435.465 / 435.565
DANDE 09 Dec 11:19:59 11:21:45 12° 281° (W) 11:23:23 436.750
AISAT 09 Dec 11:22:06 11:24:20 14° 93° (E) 11:26:34 437.250
QB50P2 09 Dec 11:26:26 11:30:42 77° 257° (WSW) 11:35:01 145.880/145.840
POLYITAN 1 09 Dec 11:26:51 11:31:09 81° 260° (W) 11:35:27 437.675
ESTCUBE 1 09 Dec 11:29:24 11:33:43 42° 99° (E) 11:38:00 437.505/2401.250
JUGNU 09 Dec 11:34:45 11:38:32 17° 179° (S) 11:42:18 437.505
SRMSAT 09 Dec 11:35:12 11:36:03 10° 165° (SSE) 11:36:54 437.500
CUBEBUG 1 09 Dec 11:36:54 11:40:49 30° 97° (E) 11:44:42 437.445
DUCHIFAT 1 09 Dec 11:37:13 11:41:28 73° 259° (WSW) 11:45:44 145.980
QB50P1 09 Dec 11:38:45 11:42:58 58° 260° (W) 11:47:12 145.935-145.965
Oscar 19 09 Dec 11:47:09 11:49:32 13° 63° (ENE) 11:51:54 437.125/150
50 SAT 09 Dec 11:48:49 11:51:23 18° 96° (E) 11:53:56 437.505
PCSat 09 Dec 11:52:13 11:56:56 30° 305° (NW) 12:01:42 145.827
VELOX 1 09 Dec 11:57:12 12:01:15 33° 98° (E) 12:05:15 145.980
DX 1 09 Dec 11:59:04 12:01:58 17° 94° (E) 12:04:51 434.975-435.025
UKube-1 09 Dec 11:59:52 12:01:36 12° 93° (E) 12:03:19 .
POPSAT HIP 1 09 Dec 12:01:07 12:04:58 32° 262° (W) 12:08:49 437.405
SPROUT 09 Dec 12:03:07 12:06:39 25° 96° (E) 12:10:09 437.525
Gurwin Techsat 1B 09 Dec 12:13:11 12:15:17 12° 62° (ENE) 12:17:23 435.225
GONETS M04 09 Dec 12:15:43 12:24:28 83° 267° (W) 12:33:14
JAS-2 09 Dec 12:18:19 12:23:14 23° 264° (W) 12:27:47 435.910
BUGSAT 1 09 Dec 12:18:59 12:23:10 64° 259° (W) 12:27:24 437.445
AISAT 09 Dec 12:56:43 13:01:00 46° 287° (WNW) 13:05:14 437.250
RS-15 09 Dec 13:02:13 13:09:22 17° 16° (NNE) 13:16:28 29.354- 29.394
ESTCUBE 1 09 Dec 13:07:24 13:10:08 16° 293° (WNW) 13:12:52 437.505/2401.250
BEESAT 3 09 Dec 13:11:09 13:14:58 43° 57° (ENE) 13:18:46 437.485
Cosmos 2499 09 Dec 13:11:38 13:18:37 31° 276° (W) 13:25:12 435.465 / 435.565
TISAT 1 09 Dec 13:11:49 13:15:07 22° 96° (E) 13:18:23 437.305
CUBEBUG 1 09 Dec 13:13:33 13:16:53 21° 291° (WNW) 13:20:12 437.445
SRMSAT 09 Dec 13:20:52 13:24:26 16° 175° (S) 13:27:58 437.500
50 SAT 09 Dec 13:21:51 13:24:34 21° 289° (WNW) 13:27:17 437.505
Oscar 19 09 Dec 13:23:09 13:28:13 67° 258° (WSW) 13:33:21 437.125/150
JUGNU 09 Dec 13:23:44 13:26:48 14° 189° (S) 13:29:51 437.505
UKube-1 09 Dec 13:33:40 13:37:51 48° 287° (WNW) 13:42:00 .
DX 1 09 Dec 13:34:13 13:38:13 35° 288° (WNW) 13:42:12 434.975-435.025
VELOX 1 09 Dec 13:34:14 13:37:25 20° 292° (WNW) 13:40:37 145.980
AO-7 09 Dec 13:38:58 13:45:03 23° 57° (ENE) 13:51:07 29.400- 29.500
SPROUT 09 Dec 13:39:02 13:42:26 23° 290° (WNW) 13:45:50 437.525
BEESAT 2 09 Dec 13:48:21 13:52:17 49° 58° (ENE) 13:56:10 435.950
Gurwin Techsat 1B 09 Dec 13:49:12 13:54:31 76° 257° (WSW) 13:59:51 435.225
ITUPSAT 1 09 Dec 13:52:13 13:53:32 11° 92° (E) 13:54:50 437.325
ITAMSAT 1 09 Dec 14:00:29 14:04:58 30° 69° (ENE) 14:09:26 435.822/435.867
ISS 09 Dec 14:07:40 14:10:25 25° 131° (SE) 14:13:12 145.825
GONETS M04 09 Dec 14:16:21 14:19:50 13° 283° (WNW) 14:23:20
TISAT 1 09 Dec 14:47:12 14:50:40 25° 290° (WNW) 14:54:05 437.305
BEESAT 3 09 Dec 14:50:22 14:52:11 13° 252° (WSW) 14:53:59 437.485
SWISSCUBE 09 Dec 14:53:04 14:57:48 65° 102° (ESE) 15:02:30 437.505
BEESAT 09 Dec 14:56:42 15:01:25 63° 102° (ESE) 15:06:07 436.000
AUBIESAT-1 09 Dec 15:08:13 15:12:41 59° 105° (ESE) 15:16:52 437.475
SRMSAT 09 Dec 15:09:22 15:12:50 16° 186° (S) 15:16:19 437.500
AIST 2 09 Dec 15:13:26 15:14:48 11° 46° (NE) 15:16:12 435.215
RS-15 09 Dec 15:15:02 15:26:38 43° 47° (NE) 15:37:51 29.354- 29.394
M-CUBED/EXP-1 PRIME 09 Dec 15:23:45 15:28:22 73° 289° (WNW) 15:32:42 437.505
ITUPSAT 1 09 Dec 15:27:00 15:31:43 63° 286° (WNW) 15:36:24 437.325
BEESAT 2 09 Dec 15:28:18 15:29:35 11° 252° (WSW) 15:30:52 435.950
AO-7 09 Dec 15:28:41 15:36:58 74° 255° (WSW) 15:45:19 29.400- 29.500
MOZHAYETS 4 09 Dec 15:29:00 15:33:04 32° 97° (E) 15:37:08
KKS-1 09 Dec 15:33:00 15:34:56 13° 92° (E) 15:36:54 437.445
ITAMSAT 1 09 Dec 15:39:52 15:44:20 29° 263° (W) 15:48:49 435.822/435.867
O/OREOS (USA 219) 09 Dec 15:40:16 15:44:49 70° 290° (WNW) 15:49:22 437.305
ISS 09 Dec 15:44:00 15:46:51 26° 326° (NW) 15:49:43 145.825
HORYU 2 09 Dec 15:44:19 15:44:40 10° 63° (ENE) 15:45:01 437.375
Cosmos 2491 09 Dec 16:22:52 16:27:23 15° 64° (ENE) 16:31:53 435.465 / 435.565
Cubesat XI-IV 09 Dec 16:32:25 16:34:22 12° 62° (ENE) 16:36:20 437.490
SWISSCUBE 09 Dec 16:33:14 16:34:59 12° 297° (WNW) 16:36:45 437.505
BEESAT 09 Dec 16:36:42 16:38:37 12° 296° (WNW) 16:40:32 436.000
BRITE-PL 09 Dec 16:42:44 16:46:59 60° 75° (ENE) 16:51:35 437.365/2234.400
AUBIESAT-1 09 Dec 16:44:27 16:46:28 13° 301° (WNW) 16:48:27 437.475
NOAA 18 09 Dec 16:47:49 16:49:26 11° 60° (ENE) 16:51:03 137.9125
AIST 2 09 Dec 16:49:32 16:53:47 74° 241° (WSW) 16:57:58 435.215
STARS 09 Dec 17:02:18 17:06:41 62° 101° (ESE) 17:11:01 437.465
MOZHAYETS 4 09 Dec 17:06:37 17:10:01 21° 291° (WNW) 17:13:24
KKS-1 09 Dec 17:07:24 17:11:44 49° 287° (WNW) 17:16:02 437.445
HORYU 2 09 Dec 17:16:08 17:20:35 69° 257° (WSW) 17:25:04 437.375
CUBESAT XI-V 09 Dec 17:18:47 17:23:28 72° 101° (E) 17:28:09 437.345
DOVE 4 09 Dec 17:26:49 17:31:01 30° 70° (ENE) 17:35:27 437.250
RS-15 09 Dec 17:27:39 17:39:32 58° 249° (WSW) 17:50:57 29.354- 29.394
AO-7 09 Dec 17:29:03 17:30:52 11° 270° (W) 17:32:42 29.400- 29.500
GOMX 1 09 Dec 17:36:00 17:40:35 89° 243° (WSW) 17:45:35 467.674
HO-68 09 Dec 17:36:58 17:40:12 14° 56° (NE) 17:43:26 435.675
LilacSat-2 09 Dec 17:38:46 17:42:30 51° 75° (ENE) 17:46:14 437.200
CUTE-I 09 Dec 17:41:11 17:46:27 57° 73° (ENE) 17:51:42 437.470
SO-50 09 Dec 17:50:57 17:51:25 10° 107° (ESE) 17:51:53 436.795
NOAA 15 09 Dec 17:51:00 17:56:14 80° 76° (ENE) 18:01:30 137.62
Cubesat XI-IV 09 Dec 18:08:19 18:13:42 80° 258° (WSW) 18:19:06 437.490
CINEMA 3 09 Dec 18:16:32 18:20:34 25° 69° (ENE) 18:24:37 145.822/145.860
Cosmos 2491 09 Dec 18:16:44 18:25:30 86° 85° (E) 18:34:13 435.465 / 435.565
NOAA 18 09 Dec 18:23:42 18:29:15 89° 255° (WSW) 18:34:50 137.9125
YUBILEINY 09 Dec 18:38:15 18:46:40 57° 91° (E) 18:55:10 435.215
STARS 09 Dec 18:41:24 18:42:27 11° 296° (WNW) 18:43:29 437.465
CUTE 1.7 + AOD 2 09 Dec 18:51:52 18:55:33 30° 72° (ENE) 18:59:13 437.475
AAUSAT CUBESAT 2 09 Dec 18:58:28 18:59:45 11° 66° (ENE) 19:01:02 437.432
CUBESAT XI-V 09 Dec 18:59:23 19:00:12 10° 296° (WNW) 19:01:01 437.345
PCSat 09 Dec 19:00:16 19:03:36 16° 49° (NE) 19:06:55 145.827
DOVE 4 09 Dec 19:04:38 19:08:38 26° 266° (W) 19:12:51 437.250
Cosmos 2504 09 Dec 19:09:42 19:17:29 45° 87° (E) 19:25:39 435.465 / 435.565
CANX-2 09 Dec 19:10:12 19:14:21 60° 75° (ENE) 19:18:30 2200.000
STRAND 1 09 Dec 19:17:54 19:22:40 39° 99° (E) 19:27:24 437.568
HO-68 09 Dec 19:19:38 19:26:47 81° 73° (ENE) 19:34:00 435.675
CUTE-I 09 Dec 19:23:45 19:26:47 15° 267° (W) 19:29:50 437.470
SO-50 09 Dec 19:26:29 19:31:15 75° 300° (WNW) 19:36:00 436.795
SEEDS 09 Dec 19:27:11 19:31:14 53° 75° (ENE) 19:35:17 437.485
COMPASS 1 09 Dec 19:30:04 19:33:51 36° 73° (ENE) 19:37:38 437.405
CUBEBUG 2 09 Dec 19:43:19 19:47:55 50° 75° (ENE) 19:52:28 437.445
Oscar 11 09 Dec 19:45:37 19:48:19 16° 68° (ENE) 19:51:00 145.826/435.025
CINEMA 3 09 Dec 19:53:04 19:57:28 32° 264° (W) 20:01:58 145.822/145.860
AIST 1 09 Dec 19:56:05 20:00:19 55° 279° (W) 20:04:36
DANDE 09 Dec 20:15:11 20:16:39 12° 79° (E) 20:18:13 436.750
Cosmos 2491 09 Dec 20:16:20 20:21:05 16° 281° (W) 20:25:51 435.465 / 435.565
UWE-3 09 Dec 20:17:05 20:21:44 77° 77° (ENE) 20:26:20 435.000/436.395/437.385
CUTE 1.7 + AOD 2 09 Dec 20:28:28 20:31:23 18° 266° (W) 20:34:18 437.475
CUSAT 1 09 Dec 20:28:40 20:32:54 75° 263° (W) 20:38:33 437.405
AAUSAT CUBESAT 2 09 Dec 20:30:46 20:34:44 49° 260° (W) 20:38:44 437.432
YUBILEINY 09 Dec 20:36:46 20:43:52 27° 289° (WNW) 20:51:03 435.215
ISS 09 Dec 20:38:23 20:40:08 14° 26° (NNE) 20:41:53 145.825
PCSat 09 Dec 20:42:07 20:47:31 71° 247° (WSW) 20:52:53 145.827
ZACube-1 09 Dec 20:48:57 20:53:30 78° 257° (WSW) 20:58:00 437.345
DELFI C3 09 Dec 20:53:43 20:57:12 31° 73° (ENE) 21:00:41 145.870
FUNcube-1 09 Dec 20:54:15 20:58:47 74° 259° (W) 21:03:14 145.935
STRAND 1 09 Dec 20:57:46 21:01:32 21° 293° (WNW) 21:05:19 437.568
Cosmos 2504 09 Dec 21:03:19 21:10:54 36° 286° (WNW) 21:18:51 435.465 / 435.565
COMPASS 1 09 Dec 21:07:13 21:09:30 14° 267° (W) 21:11:47 437.405
HO-68 09 Dec 21:11:14 21:15:10 15° 269° (W) 21:19:05 435.675
Oscar 11 09 Dec 21:20:08 21:24:07 37° 262° (W) 21:28:07 145.826/435.025
CUBEBUG 2 09 Dec 21:22:16 21:24:44 14° 268° (W) 21:27:11 437.445
PRISM 09 Dec 21:32:47 21:36:57 71° 102° (ESE) 21:41:05 437.425
HUMSAT D 09 Dec 21:40:29 21:44:38 63° 76° (ENE) 21:48:45 437.325/437.525
UNISAT 6 09 Dec 21:46:15 21:49:24 19° 94° (E) 21:52:30 437.425
DANDE 09 Dec 21:56:24 21:59:09 24° 263° (W) 22:02:27 436.750
PHONESAT 2.4 09 Dec 22:12:42 22:15:11 35° 151° (SSE) 22:17:39 2401.200-2431.200
ISS 09 Dec 22:13:42 22:17:01 84° 221° (SW) 22:20:18 145.825
TIGRISAT 09 Dec 22:14:11 22:18:14 38° 98° (E) 22:22:12 435.000
ANTELSAT 09 Dec 22:16:42 22:20:51 44° 99° (E) 22:24:55 437.575/2403.000
ESTCUBE 1 09 Dec 22:26:17 22:30:02 27° 70° (ENE) 22:33:49 437.505/2401.250
DELFI C3 09 Dec 22:29:48 22:32:03 15° 266° (W) 22:34:20 145.870
CUBEBUG 1 09 Dec 22:30:41 22:33:38 18° 67° (ENE) 22:36:36 437.445
VELOX 1 09 Dec 22:52:04 22:55:22 21° 68° (ENE) 22:58:41 145.980
DX 1 09 Dec 22:53:41 22:54:47 11° 64° (ENE) 22:55:53 434.975-435.025
SPROUT 09 Dec 22:54:53 22:57:06 14° 66° (ENE) 22:59:20 437.525
NANOSAT C BR1 09 Dec 23:05:55 23:08:04 14° 93° (E) 23:10:10 145.865
QB50P2 09 Dec 23:15:03 23:18:16 21° 95° (E) 23:21:27 145.880/145.840
POLYITAN 1 09 Dec 23:15:33 23:18:39 20° 95° (E) 23:21:43 437.675
GONETS M04 09 Dec 23:19:03 23:25:21 23° 82° (E) 23:31:36
UNISAT 6 09 Dec 23:22:21 23:26:07 29° 289° (WNW) 23:29:49 437.425
DUCHIFAT 1 09 Dec 23:24:56 23:28:10 21° 95° (E) 23:31:21 145.980
QB50P1 09 Dec 23:26:46 23:30:22 27° 97° (E) 23:33:54 145.935-145.965
JAS-2 09 Dec 23:28:19 23:33:26 48° 100° (E) 23:38:55 435.910
PHONESAT 2.4 09 Dec 23:47:48 23:50:20 39° 346° (NNW) 23:52:51 2401.200-2431.200
POPSAT HIP 1 09 Dec 23:48:20 23:52:26 48° 99° (E) 23:56:30 437.405
Cosmos 2499 09 Dec 23:49:16 23:57:10 43° 87° (E) 00:05:21 435.465 / 435.565
AISAT 09 Dec 23:50:28 23:54:52 77° 257° (WSW) 23:59:21 437.250
TIGRISAT 09 Dec 23:51:59 23:54:34 16° 293° (WNW) 23:57:05 435.000
50 SAT 09 Dec 23:53:05 23:56:35 87° 256° (WSW) 00:00:06 437.505
ANTELSAT 09 Dec 23:54:56 23:57:07 14° 294° (WNW) 23:59:17 437.575/2403.000
TISAT 1 10 Dec 00:02:05 00:03:47 12° 65° (ENE) 00:05:28 437.305
ESTCUBE 1 10 Dec 00:03:14 00:06:46 23° 264° (W) 00:10:21 437.505/2401.250
BUGSAT 1 10 Dec 00:04:25 00:07:40 22° 95° (E) 00:10:51 437.445
CUBEBUG 1 10 Dec 00:05:38 00:09:37 35° 262° (W) 00:13:39 437.445
O/OREOS (USA 219) 10 Dec 00:16:14 00:17:56 12° 57° (ENE) 00:19:38 437.305
UKube-1 10 Dec 00:24:38 00:28:57 87° 257° (WSW) 00:33:18 .
DX 1 10 Dec 00:26:07 00:30:23 60° 258° (WSW) 00:34:43 434.975-435.025
VELOX 1 10 Dec 00:27:44 00:31:36 30° 263° (W) 00:35:31 145.980
SPROUT 10 Dec 00:28:29 00:32:36 44° 261° (W) 00:36:44 437.525
NANOSAT C BR1 10 Dec 00:39:59 00:43:56 40° 287° (WNW) 00:47:51 145.865
QB50P2 10 Dec 00:50:26 00:54:00 27° 289° (WNW) 00:57:31 145.880/145.840
POLYITAN 1 10 Dec 00:50:48 00:54:25 28° 289° (WNW) 00:57:59 437.675
ITUPSAT 1 10 Dec 00:57:28 00:58:05 10° 62° (ENE) 00:58:41 437.325
DUCHIFAT 1 10 Dec 01:00:16 01:03:46 26° 290° (WNW) 01:07:14 145.980
QB50P1 10 Dec 01:02:45 01:05:56 21° 291° (WNW) 01:09:07 145.935-145.965
AO-85 10 Dec 01:09:36 01:14:36 89° 283° (WNW) 01:19:17 145.980
GONETS M04 10 Dec 01:12:41 01:21:19 66° 279° (W) 01:29:58
JAS-2 10 Dec 01:14:43 01:18:13 18° 294° (WNW) 01:21:51 435.910
PHONESAT 2.4 10 Dec 01:23:32 01:25:51 26° 3° (N) 01:28:10 2401.200-2431.200
POPSAT HIP 1 10 Dec 01:25:59 01:27:45 12° 294° (WNW) 01:29:30 437.405
TISAT 1 10 Dec 01:34:49 01:38:56 50° 260° (W) 01:43:05 437.305
Oscar 19 10 Dec 01:37:37 01:42:44 55° 100° (E) 01:47:49 437.125/150
BUGSAT 1 10 Dec 01:39:33 01:42:56 24° 290° (WNW) 01:46:16 437.445
Cosmos 2499 10 Dec 01:42:25 01:50:16 38° 285° (WNW) 01:58:25 435.465 / 435.565
AUBIESAT-1 10 Dec 01:50:32 01:54:30 43° 68° (ENE) 01:58:43 437.475
O/OREOS (USA 219) 10 Dec 01:53:20 01:57:44 59° 253° (WSW) 02:02:06 437.305
SWISSCUBE 10 Dec 01:56:25 02:01:02 52° 73° (ENE) 02:05:40 437.505
BEESAT 10 Dec 01:59:59 02:04:36 51° 73° (ENE) 02:09:13 436.000
M-CUBED/EXP-1 PRIME 10 Dec 02:06:21 02:10:29 84° 70° (ENE) 02:14:58 437.505
Gurwin Techsat 1B 10 Dec 02:08:29 02:13:42 55° 100° (E) 02:18:53 435.225
ITAMSAT 1 10 Dec 02:17:58 02:20:06 12° 92° (E) 02:22:14 435.822/435.867
MOZHAYETS 4 10 Dec 02:28:23 02:31:55 22° 69° (ENE) 02:35:26
ITUPSAT 1 10 Dec 02:30:27 02:35:13 76° 256° (WSW) 02:40:01 437.325
AO-85 10 Dec 02:54:09 02:55:34 11° 314° (NW) 02:56:57 145.980
PHONESAT 2.4 10 Dec 02:58:39 03:01:16 63° 20° (NNE) 03:03:53 2401.200-2431.200
BEESAT 3 10 Dec 03:00:03 03:02:12 14° 109° (ESE) 03:04:20 437.485
Oscar 19 10 Dec 03:18:24 03:21:33 16° 296° (WNW) 03:24:40 437.125/150
AUBIESAT-1 10 Dec 03:26:46 03:29:07 15° 264° (W) 03:31:33 437.475
AO-7 10 Dec 03:33:48 03:41:47 46° 101° (E) 03:49:42 29.400- 29.500
SWISSCUBE 10 Dec 03:36:46 03:39:05 13° 267° (W) 03:41:23 437.505
BEESAT 2 10 Dec 03:38:14 03:40:51 17° 110° (ESE) 03:43:29 435.950
BEESAT 10 Dec 03:40:11 03:42:37 14° 267° (W) 03:45:04 436.000
Gurwin Techsat 1B 10 Dec 03:49:51 03:53:10 17° 296° (WNW) 03:56:28 435.225
ITAMSAT 1 10 Dec 03:54:50 03:59:57 64° 287° (WNW) 04:05:03 435.822/435.867
STARS 10 Dec 03:55:51 03:59:55 37° 72° (ENE) 04:04:02 437.465
SO-50 10 Dec 04:00:55 04:05:12 41° 56° (NE) 04:09:24 436.795
KKS-1 10 Dec 04:01:56 04:06:23 80° 257° (WSW) 04:10:54 437.445
MOZHAYETS 4 10 Dec 04:04:51 04:08:52 30° 263° (W) 04:12:54
CUBESAT XI-V 10 Dec 04:19:01 04:23:25 48° 74° (ENE) 04:27:50 437.345
PHONESAT 2.4 10 Dec 04:34:22 04:36:14 17° 213° (SSW) 04:38:04 2401.200-2431.200
BEESAT 3 10 Dec 04:35:50 04:39:27 37° 304° (NW) 04:43:07 437.485
BRITE-PL 10 Dec 04:49:47 04:54:40 30° 96° (E) 04:59:35 437.365/2234.400
YUBILEINY 10 Dec 04:52:57 04:59:45 24° 70° (ENE) 05:06:29 435.215
Cosmos 2504 10 Dec 05:09:09 05:12:37 13° 62° (ENE) 05:16:00 435.465 / 435.565
HORYU 2 10 Dec 05:10:23 05:14:10 27° 97° (E) 05:17:53 437.375
BEESAT 2 10 Dec 05:14:49 05:18:22 32° 305° (NW) 05:21:57 435.950
Cosmos 2491 10 Dec 05:21:01 05:26:38 19° 80° (E) 05:32:13 435.465 / 435.565
AO-7 10 Dec 05:26:52 05:34:17 37° 298° (WNW) 05:41:42 29.400- 29.500
DOVE 4 10 Dec 05:31:12 05:32:34 11° 89° (E) 05:33:55 437.250
STARS 10 Dec 05:33:33 05:36:22 17° 266° (W) 05:39:12 437.465
RS-15 10 Dec 05:35:40 05:45:22 32° 103° (ESE) 05:55:24 29.354- 29.394
GOMX 1 10 Dec 05:40:36 05:45:44 39° 97° (E) 05:50:44 467.674
SO-50 10 Dec 05:42:24 05:45:18 17° 251° (WSW) 05:48:10 436.795
CUBESAT XI-V 10 Dec 05:58:44 06:01:01 14° 268° (W) 06:03:18 437.345
CUTE-I 10 Dec 06:01:43 06:06:17 29° 97° (E) 06:10:49 437.470
AIST 1 10 Dec 06:06:27 06:10:08 25° 77° (ENE) 06:13:48
NOAA 15 10 Dec 06:09:20 06:14:15 38° 99° (E) 06:19:08 137.62
BRITE-PL 10 Dec 06:28:04 06:33:01 34° 289° (WNW) 06:38:03 437.365/2234.400
Cubesat XI-IV 10 Dec 06:28:42 06:33:55 53° 100° (E) 06:39:05 437.490
STRAND 1 10 Dec 06:30:47 06:35:35 42° 72° (ENE) 06:40:24 437.568
AIST 2 10 Dec 06:44:02 06:47:56 46° 115° (ESE) 06:51:54 435.215
HORYU 2 10 Dec 06:47:04 06:50:33 23° 291° (WNW) 06:54:01 437.375
YUBILEINY 10 Dec 06:48:26 06:57:09 66° 268° (W) 07:05:51 435.215
LilacSat-2 10 Dec 06:48:58 06:52:42 65° 284° (WNW) 06:56:25 437.200
NOAA 18 10 Dec 06:48:58 06:54:20 50° 100° (E) 06:59:39 137.9125
HO-68 10 Dec 06:52:34 06:57:02 17° 92° (E) 07:01:29 435.675
Cosmos 2504 10 Dec 06:58:54 07:07:37 76° 82° (E) 07:15:41 435.465 / 435.565
CANX-2 10 Dec 06:59:50 07:01:47 13° 92° (E) 07:03:43 2200.000
DOVE 4 10 Dec 07:05:33 07:10:47 73° 284° (WNW) 07:15:45 437.250
Cosmos 2491 10 Dec 07:13:38 07:22:24 76° 277° (W) 07:31:12 435.465 / 435.565
SEEDS 10 Dec 07:16:18 07:17:25 11° 92° (E) 07:18:32 437.485
GOMX 1 10 Dec 07:19:06 07:23:30 25° 292° (WNW) 07:27:50 467.674
CUBEBUG 2 10 Dec 07:39:33 07:41:10 12° 91° (E) 07:42:44 437.445
CUTE-I 10 Dec 07:41:38 07:46:14 31° 291° (WNW) 07:50:49 437.470
AIST 1 10 Dec 07:44:11 07:47:33 22° 272° (W) 07:50:54
RS-15 10 Dec 07:45:12 07:56:51 67° 303° (WNW) 08:09:07 29.354- 29.394
NOAA 15 10 Dec 07:49:38 07:53:45 24° 293° (WNW) 07:57:53 137.62
CINEMA 3 10 Dec 07:50:33 07:55:15 83° 101° (E) 07:59:43 145.822/145.860
Cubesat XI-IV 10 Dec 08:10:05 08:13:31 18° 296° (WNW) 08:16:56 437.490
UWE-3 10 Dec 08:11:02 08:13:52 18° 94° (E) 08:16:41 435.000/436.395/437.385
STRAND 1 10 Dec 08:11:15 08:14:53 19° 266° (W) 08:18:32 437.568
CUTE 1.7 + AOD 2 10 Dec 08:14:34 08:18:49 88° 286° (WNW) 08:23:03 437.475
AAUSAT CUBESAT 2 10 Dec 08:15:55 08:19:34 29° 97° (E) 08:23:11 437.432
PRISM 10 Dec 08:19:19 08:22:55 32° 72° (ENE) 08:26:34 437.425
AIST 2 10 Dec 08:24:09 08:26:39 15° 311° (NW) 08:29:10 435.215
NOAA 18 10 Dec 08:30:42 08:34:33 20° 296° (WNW) 08:38:24 137.9125
CANX-2 10 Dec 08:33:48 08:37:48 42° 286° (WNW) 08:41:48 2200.000
HO-68 10 Dec 08:38:07 08:45:19 74° 288° (WNW) 08:52:28 435.675
ZACube-1 10 Dec 08:41:01 08:44:23 23° 95° (E) 08:47:42 437.345
UNISAT 6 10 Dec 08:42:54 08:45:23 14° 66° (ENE) 08:47:50 437.425
FUNcube-1 10 Dec 08:45:55 08:49:19 24° 96° (E) 08:52:41 145.935
SEEDS 10 Dec 08:49:17 08:53:21 49° 285° (WNW) 08:57:24 437.485
COMPASS 1 10 Dec 08:50:34 08:54:44 75° 283° (WNW) 08:58:53 437.405
Cosmos 2504 10 Dec 08:54:23 08:59:51 19° 281° (W) 09:05:07 435.465 / 435.565
TIGRISAT 10 Dec 09:09:48 09:13:39 26° 70° (ENE) 09:17:29 435.000
Oscar 11 10 Dec 09:09:51 09:14:01 47° 99° (E) 09:18:10 145.826/435.025
ANTELSAT 10 Dec 09:12:20 09:16:22 29° 71° (ENE) 09:20:21 437.575/2403.000
CUBEBUG 2 10 Dec 09:13:55 09:18:03 46° 286° (WNW) 09:22:03 437.445
Cosmos 2491 10 Dec 09:17:17 09:20:44 13° 297° (WNW) 09:24:11 435.465 / 435.565
DANDE 10 Dec 09:20:17 09:23:48 24° 97° (E) 09:26:42 436.750
HUMSAT D 10 Dec 09:28:45 09:30:18 12° 93° (E) 09:31:50 437.325/437.525
CUSAT 1 10 Dec 09:30:39 09:33:27 35° 279° (W) 09:35:58 437.405
JUGNU 10 Dec 09:32:09 09:35:07 14° 170° (S) 09:38:05 437.505
PCSat 10 Dec 09:38:44 09:42:53 23° 106° (ESE) 09:47:04 145.827
JAS-2 10 Dec 09:39:59 09:43:26 16° 65° (ENE) 09:46:41 435.910
AO-85 10 Dec 09:44:39 09:48:06 28° 54° (NE) 09:51:29 145.980
UWE-3 10 Dec 09:46:40 09:50:22 30° 289° (WNW) 09:54:01 435.000/436.395/437.385
Cosmos 2499 10 Dec 09:48:37 09:50:40 11° 60° (ENE) 09:52:40 435.465 / 435.565
